Location: Casteau
(50.5142°N, 4.0161°E)
Time: 09:00:35
(UTC+00:00)

NOSS 3-2 (A) - Pass Details

Date: 18 September 2020
Orbit: 795 x 1413 km, 63.4° (Epoch: 25 October)

Event Time Altitude Azimuth Distance (km) Brightness Sun altitude
Rises 18:08:15 0° 312° (NW) 3,812 7.6 -3.7°
Reaches altitude 10° 18:10:51 10° 318° (NW) 2,944 6.8 -4.1°
Maximum altitude 18:17:45 50° 33° (NNE) 1,504 4.4 -5.2°
Drops below altitude 10° 18:25:39 10° 108° (ESE) 3,357 5.6 -6.4°
Enters shadow 18:26:33 - 110° (ESE) 3,653 5.8 -6.6°
